LiveATC.Net - Listen to live air traffic control over the Internet!


ICAO: KLHZ  IATA: LHZ   Airport: Triangle North Executive Airport
City: Louisburg   State/Province: North Carolina
Country: United States   Continent: North America
KLHZ METAR Weather: KLHZ 012115Z AUTO 27008KT 10SM BKN060 06/M05 A2995 RMK AO2
KLHZ Flight Activity (FlightAware)
KLHZ Airport Info   (iFlightPlanner)
KLHZ VFR Sectional Chart   (iFlightPlanner) 
KLHZ IFR Low Chart   (iFlightPlanner) 

KLHZ CTAF
Feed Status: UP   Listeners: 0
Listen in your browser - HTML5 player (in browser, HTML5)
Click here to listen with your own player (launches your MP3 player)
Archive Access: KLHZ CTAF
FacilityFrequency
Louisburg CTAF/UNICOM123.000
Louisburg GCO135.075
Raleigh Approach (East)125.300

NOTICE

Unauthorized use prohibited. See LiveATC.net Terms of Service


Airport/ARTCC Code
Frequency Search
(e.g., 124.400, 128.75)
Site-wide search
 


Browse Feeds
Top 50 Feeds
Coverage Map
Bad Weather Areas

LiveATC FAQ
Offer LiveATC feed
Contact LiveATC.net
Press Inquiries

LiveATC on iPhone
LiveATC on Android

Windows Phone
Windows 8/10

LiveATC Mobile
(Mobile browser)

ATC Audio Archives
Interesting Recordings

LiveATC Forums


Home Page
About LiveATC.net
Make a Donation
Terms of Use
Privacy Policy

Canadian Air Freqs

AIRMETs/SIGMETs

FAA Airport Status
Nat'l Airspace Status
Arrival Demand Charts


Server Software By:
Icecast.org
Liquidsoap